PWSweather.com
Personal Weather Stations
Station Observations
KCACAMAR4
Temple And Ponderosa, Camarillo, CA 93010

Temple And PonderosaCamarillo, CA 93010

Lat: 34.23113300000001, Lon: -119.02988600000003

Elevation: 174

Station Type: Davis Vantage Pro2

http://www.camarilloweather.com

Latest ConditionsUpdated 5:05:00 AM PDT Friday, Jun 23, 2017
Currently Today's Max Today's Min Today's Average
Temperature 62.1°F16.7°C 63.9°F17.7°C 61.9°F16.6°C 62.6°F17.0°C
Dew Point 60.1°F15.6°C 60.3°F15.7°C 59.6°F15.3°C 59.9°F15.5°C
Winds Calm Calm 3.0 mph SW4.8 kmh SW - 0.8 mph 1.3 kmh
Wind Gusts 2.0 mph3.2 kmh 7.0 mph11.3 kmh - -
Humidity 93% 93% 88% 91%
Pressure 29.87 in1011.5 mb 29.88 in1011.9 mb 29.86 in1011.2 mb -
Hour Temp Dew Point Humidity Winds Wind Gusts Pressure Precip Precip Rate Daily Precip Total
05:05 AM 62.1°F16.7°C 60.1°F15.6°C 93% Calm Calm 2.0 mph3.2 kmh 29.87 in1011.5 mb 0.00 in0.0 mm 0.00 in0.0 mm 0.00 in0.0 mm
05:00 AM 62.1°F16.7°C 60.1°F15.6°C 93% Calm Calm 2.0 mph3.2 kmh 29.87 in1011.5 mb 0.00 in0.0 mm 0.00 in0.0 mm 0.00 in0.0 mm
04:55 AM 62.1°F16.7°C 60.1°F15.6°C 93% Calm Calm 2.0 mph3.2 kmh 29.87 in1011.5 mb 0.00 in0.0 mm 0.00 in0.0 mm 0.00 in0.0 mm
04:50 AM 62.0°F16.7°C 60.0°F15.6°C 93% Calm Calm 3.0 mph4.8 kmh 29.87 in1011.5 mb 0.00 in0.0 mm 0.00 in0.0 mm 0.00 in0.0 mm
04:45 AM 62.0°F16.7°C 60.0°F15.6°C 93% Calm Calm 3.0 mph4.8 kmh 29.86 in1011.2 mb 0.00 in0.0 mm 0.00 in0.0 mm 0.00 in0.0 mm
04:40 AM 62.0°F16.7°C 60.0°F15.6°C 93% Calm Calm 2.0 mph3.2 kmh 29.86 in1011.2 mb 0.00 in0.0 mm 0.00 in0.0 mm 0.00 in0.0 mm
04:35 AM 61.9°F16.6°C 59.9°F15.5°C 93% 1.0 mph NW1.6 kmh NW 2.0 mph3.2 kmh 29.86 in1011.2 mb 0.00 in0.0 mm 0.00 in0.0 mm 0.00 in0.0 mm
04:30 AM 62.0°F16.7°C 60.0°F15.6°C 93% 1.0 mph NNW1.6 kmh NNW 3.0 mph4.8 kmh 29.86 in1011.2 mb 0.00 in0.0 mm 0.00 in0.0 mm 0.00 in0.0 mm
04:25 AM 62.1°F16.7°C 59.7°F15.4°C 92% Calm Calm 3.0 mph4.8 kmh 29.87 in1011.5 mb 0.00 in0.0 mm 0.00 in0.0 mm 0.00 in0.0 mm
04:20 AM 62.2°F16.8°C 59.8°F15.4°C 92% Calm Calm 2.0 mph3.2 kmh 29.87 in1011.5 mb 0.00 in0.0 mm 0.00 in0.0 mm 0.00 in0.0 mm
04:15 AM 62.3°F16.8°C 60.2°F15.7°C 93% Calm Calm -- 29.87 in1011.5 mb 0.00 in0.0 mm 0.00 in0.0 mm 0.00 in0.0 mm
04:10 AM 62.4°F16.9°C 60.3°F15.7°C 93% Calm Calm -- 29.87 in1011.5 mb 0.00 in0.0 mm 0.00 in0.0 mm 0.00 in0.0 mm
04:05 AM 62.3°F16.8°C 59.9°F15.5°C 92% Calm Calm -- 29.86 in1011.2 mb 0.00 in0.0 mm 0.00 in0.0 mm 0.00 in0.0 mm
04:00 AM 62.3°F16.8°C 59.9°F15.5°C 92% Calm Calm -- 29.87 in1011.5 mb 0.00 in0.0 mm 0.00 in0.0 mm 0.00 in0.0 mm
03:55 AM 62.2°F16.8°C 59.8°F15.4°C 92% Calm Calm 1.0 mph1.6 kmh 29.87 in1011.5 mb 0.00 in0.0 mm 0.00 in0.0 mm 0.00 in0.0 mm
03:50 AM 62.2°F16.8°C 59.8°F15.4°C 92% Calm Calm 2.0 mph3.2 kmh 29.87 in1011.5 mb 0.00 in0.0 mm 0.00 in0.0 mm 0.00 in0.0 mm
03:45 AM 62.2°F16.8°C 59.8°F15.4°C 92% Calm Calm 2.0 mph3.2 kmh 29.87 in1011.5 mb 0.00 in0.0 mm 0.00 in0.0 mm 0.00 in0.0 mm
03:40 AM 62.2°F16.8°C 59.8°F15.4°C 92% Calm Calm 1.0 mph1.6 kmh 29.87 in1011.5 mb 0.00 in0.0 mm 0.00 in0.0 mm 0.00 in0.0 mm
03:35 AM 62.3°F16.8°C 59.9°F15.5°C 92% Calm Calm 2.0 mph3.2 kmh 29.87 in1011.5 mb 0.00 in0.0 mm 0.00 in0.0 mm 0.00 in0.0 mm
03:30 AM 62.3°F16.8°C 59.9°F15.5°C 92% Calm Calm 2.0 mph3.2 kmh 29.87 in1011.5 mb 0.00 in0.0 mm 0.00 in0.0 mm 0.00 in0.0 mm
03:25 AM 62.3°F16.8°C 59.9°F15.5°C 92% Calm Calm 2.0 mph3.2 kmh 29.87 in1011.5 mb 0.00 in0.0 mm 0.00 in0.0 mm 0.00 in0.0 mm
03:20 AM 62.3°F16.8°C 59.9°F15.5°C 92% Calm Calm 2.0 mph3.2 kmh 29.87 in1011.5 mb 0.00 in0.0 mm 0.00 in0.0 mm 0.00 in0.0 mm
03:15 AM 62.3°F16.8°C 59.9°F15.5°C 92% Calm Calm 1.0 mph1.6 kmh 29.87 in1011.5 mb 0.00 in0.0 mm 0.00 in0.0 mm 0.00 in0.0 mm
03:10 AM 62.3°F16.8°C 59.9°F15.5°C 92% Calm Calm 1.0 mph1.6 kmh 29.87 in1011.5 mb 0.00 in0.0 mm 0.00 in0.0 mm 0.00 in0.0 mm
03:05 AM 62.2°F16.8°C 59.8°F15.4°C 92% Calm Calm 2.0 mph3.2 kmh 29.87 in1011.5 mb 0.00 in0.0 mm 0.00 in0.0 mm 0.00 in0.0 mm
03:00 AM 62.1°F16.7°C 59.7°F15.4°C 92% 1.0 mph WSW1.6 kmh WSW 2.0 mph3.2 kmh 29.87 in1011.5 mb 0.00 in0.0 mm 0.00 in0.0 mm 0.00 in0.0 mm
02:55 AM 62.2°F16.8°C 59.8°F15.4°C 92% 1.0 mph WSW1.6 kmh WSW 3.0 mph4.8 kmh 29.87 in1011.5 mb 0.00 in0.0 mm 0.00 in0.0 mm 0.00 in0.0 mm
02:50 AM 62.2°F16.8°C 59.8°F15.4°C 92% Calm Calm 3.0 mph4.8 kmh 29.88 in1011.9 mb 0.00 in0.0 mm 0.00 in0.0 mm 0.00 in0.0 mm
02:45 AM 62.2°F16.8°C 59.8°F15.4°C 92% Calm Calm 2.0 mph3.2 kmh 29.87 in1011.5 mb 0.00 in0.0 mm 0.00 in0.0 mm 0.00 in0.0 mm
02:40 AM 62.1°F16.7°C 59.7°F15.4°C 92% 1.0 mph WSW1.6 kmh WSW 2.0 mph3.2 kmh 29.87 in1011.5 mb 0.00 in0.0 mm 0.00 in0.0 mm 0.00 in0.0 mm
02:35 AM 62.1°F16.7°C 59.7°F15.4°C 92% 2.0 mph SW3.2 kmh SW 4.0 mph6.4 kmh 29.87 in1011.5 mb 0.00 in0.0 mm 0.00 in0.0 mm 0.00 in0.0 mm
02:30 AM 62.1°F16.7°C 59.7°F15.4°C 92% 1.0 mph WSW1.6 kmh WSW 4.0 mph6.4 kmh 29.88 in1011.9 mb 0.00 in0.0 mm 0.00 in0.0 mm 0.00 in0.0 mm
02:25 AM 62.1°F16.7°C 59.7°F15.4°C 92% 1.0 mph WSW1.6 kmh WSW 4.0 mph6.4 kmh 29.88 in1011.9 mb 0.00 in0.0 mm 0.00 in0.0 mm 0.00 in0.0 mm
02:20 AM 62.1°F16.7°C 59.7°F15.4°C 92% 1.0 mph WSW1.6 kmh WSW 4.0 mph6.4 kmh 29.87 in1011.5 mb 0.00 in0.0 mm 0.00 in0.0 mm 0.00 in0.0 mm
02:15 AM 62.1°F16.7°C 59.7°F15.4°C 92% 1.0 mph WSW1.6 kmh WSW 3.0 mph4.8 kmh 29.87 in1011.5 mb 0.00 in0.0 mm 0.00 in0.0 mm 0.00 in0.0 mm
02:10 AM 62.1°F16.7°C 59.7°F15.4°C 92% 2.0 mph WSW3.2 kmh WSW 4.0 mph6.4 kmh 29.88 in1011.9 mb 0.00 in0.0 mm 0.00 in0.0 mm 0.00 in0.0 mm
02:05 AM 62.2°F16.8°C 59.8°F15.4°C 92% 2.0 mph WSW3.2 kmh WSW 4.0 mph6.4 kmh 29.88 in1011.9 mb 0.00 in0.0 mm 0.00 in0.0 mm 0.00 in0.0 mm
02:00 AM 62.1°F16.7°C 59.7°F15.4°C 92% 2.0 mph WSW3.2 kmh WSW 4.0 mph6.4 kmh 29.88 in1011.9 mb 0.00 in0.0 mm 0.00 in0.0 mm 0.00 in0.0 mm
01:55 AM 62.3°F16.8°C 59.6°F15.3°C 91% 2.0 mph WSW3.2 kmh WSW 5.0 mph8.0 kmh 29.87 in1011.5 mb 0.00 in0.0 mm 0.00 in0.0 mm 0.00 in0.0 mm
01:50 AM 62.3°F16.8°C 59.6°F15.3°C 91% 2.0 mph SW3.2 kmh SW 5.0 mph8.0 kmh 29.88 in1011.9 mb 0.00 in0.0 mm 0.00 in0.0 mm 0.00 in0.0 mm
01:45 AM 62.5°F16.9°C 59.8°F15.4°C 91% 3.0 mph SW4.8 kmh SW 7.0 mph11.3 kmh 29.88 in1011.9 mb 0.00 in0.0 mm 0.00 in0.0 mm 0.00 in0.0 mm
01:40 AM 62.6°F17.0°C 59.9°F15.5°C 91% 2.0 mph WSW3.2 kmh WSW 7.0 mph11.3 kmh 29.88 in1011.9 mb 0.00 in0.0 mm 0.00 in0.0 mm 0.00 in0.0 mm
01:35 AM 62.6°F17.0°C 59.6°F15.3°C 90% 1.0 mph SW1.6 kmh SW 6.0 mph9.7 kmh 29.88 in1011.9 mb 0.00 in0.0 mm 0.00 in0.0 mm 0.00 in0.0 mm
01:30 AM 62.8°F17.1°C 59.8°F15.4°C 90% Calm Calm 6.0 mph9.7 kmh 29.88 in1011.9 mb 0.00 in0.0 mm 0.00 in0.0 mm 0.00 in0.0 mm
01:25 AM 62.9°F17.2°C 59.9°F15.5°C 90% Calm Calm 2.0 mph3.2 kmh 29.88 in1011.9 mb 0.00 in0.0 mm 0.00 in0.0 mm 0.00 in0.0 mm
01:20 AM 63.0°F17.2°C 60.0°F15.6°C 90% 1.0 mph WSW1.6 kmh WSW 3.0 mph4.8 kmh 29.88 in1011.9 mb 0.00 in0.0 mm 0.00 in0.0 mm 0.00 in0.0 mm
01:15 AM 63.1°F17.3°C 60.1°F15.6°C 90% 1.0 mph WSW1.6 kmh WSW 3.0 mph4.8 kmh 29.87 in1011.5 mb 0.00 in0.0 mm 0.00 in0.0 mm 0.00 in0.0 mm
01:10 AM 63.1°F17.3°C 59.8°F15.4°C 89% 1.0 mph WSW1.6 kmh WSW 3.0 mph4.8 kmh 29.87 in1011.5 mb 0.00 in0.0 mm 0.00 in0.0 mm 0.00 in0.0 mm
01:05 AM 63.1°F17.3°C 59.8°F15.4°C 89% 1.0 mph WSW1.6 kmh WSW 3.0 mph4.8 kmh 29.87 in1011.5 mb 0.00 in0.0 mm 0.00 in0.0 mm 0.00 in0.0 mm
01:00 AM 63.2°F17.3°C 59.9°F15.5°C 89% 2.0 mph WSW3.2 kmh WSW 4.0 mph6.4 kmh 29.87 in1011.5 mb 0.00 in0.0 mm 0.00 in0.0 mm 0.00 in0.0 mm
12:55 AM 63.1°F17.3°C 59.8°F15.4°C 89% 2.0 mph WSW3.2 kmh WSW 4.0 mph6.4 kmh 29.87 in1011.5 mb 0.00 in0.0 mm 0.00 in0.0 mm 0.00 in0.0 mm
12:50 AM 63.2°F17.3°C 59.9°F15.5°C 89% 2.0 mph SW3.2 kmh SW 4.0 mph6.4 kmh 29.87 in1011.5 mb 0.00 in0.0 mm 0.00 in0.0 mm 0.00 in0.0 mm
12:45 AM 63.2°F17.3°C 59.9°F15.5°C 89% 2.0 mph SW3.2 kmh SW 5.0 mph8.0 kmh 29.87 in1011.5 mb 0.00 in0.0 mm 0.00 in0.0 mm 0.00 in0.0 mm
12:40 AM 63.4°F17.4°C 60.1°F15.6°C 89% 2.0 mph SW3.2 kmh SW 5.0 mph8.0 kmh 29.87 in1011.5 mb 0.00 in0.0 mm 0.00 in0.0 mm 0.00 in0.0 mm
12:35 AM 63.4°F17.4°C 59.8°F15.4°C 88% 2.0 mph SW3.2 kmh SW 4.0 mph6.4 kmh 29.87 in1011.5 mb 0.00 in0.0 mm 0.00 in0.0 mm 0.00 in0.0 mm
12:30 AM 63.5°F17.5°C 59.9°F15.5°C 88% 2.0 mph SW3.2 kmh SW 4.0 mph6.4 kmh 29.87 in1011.5 mb 0.00 in0.0 mm 0.00 in0.0 mm 0.00 in0.0 mm
12:25 AM 63.6°F17.6°C 60.0°F15.6°C 88% 1.0 mph WSW1.6 kmh WSW 4.0 mph6.4 kmh 29.87 in1011.5 mb 0.00 in0.0 mm 0.00 in0.0 mm 0.00 in0.0 mm
12:20 AM 63.7°F17.6°C 60.1°F15.6°C 88% 1.0 mph WSW1.6 kmh WSW 4.0 mph6.4 kmh 29.87 in1011.5 mb 0.00 in0.0 mm 0.00 in0.0 mm 0.00 in0.0 mm
12:15 AM 63.8°F17.7°C 60.2°F15.7°C 88% 1.0 mph WSW1.6 kmh WSW 3.0 mph4.8 kmh 29.87 in1011.5 mb 0.00 in0.0 mm 0.00 in0.0 mm 0.00 in0.0 mm
12:10 AM 63.9°F17.7°C 60.3°F15.7°C 88% 1.0 mph WSW1.6 kmh WSW 3.0 mph4.8 kmh 29.87 in1011.5 mb 0.00 in0.0 mm 0.00 in0.0 mm 0.00 in0.0 mm
12:05 AM 63.9°F17.7°C 60.3°F15.7°C 88% 1.0 mph WSW1.6 kmh WSW 3.0 mph4.8 kmh 29.87 in1011.5 mb 0.00 in0.0 mm 0.00 in0.0 mm 0.00 in0.0 mm
12:00 AM 63.9°F17.7°C 60.3°F15.7°C 88% 1.0 mph WSW1.6 kmh WSW 3.0 mph4.8 kmh 29.87 in1011.5 mb 0.00 in0.0 mm 0.00 in0.0 mm 0.00 in0.0 mm